Powrót do katalogu

NOAA 16 DEB

AktywnySSO
NORAD 41161·DEBRIS·🇺🇸 United States

Wystrzelony Sep 21, 2000 z Vandenberg Space Force Base

Loading…

Następne Przeloty (najbliższe 24 godziny)

TLE

ŚwieżeSource: Space-Track

Epoka: Sep 14, 2026, 08:53 UTC

1 41161U 00055CU  26257.37045073  .00001677  00000-0  77587-3 0  9992
2 41161  98.6722 303.3341 0037292 197.6744 162.3139 14.21809418555623

Śledź NOAA 16 DEB w czasie rzeczywistym z AllMySat

Download on the App Store